User: anonymous   Login
Location: Unspecified
(0.0000°N, 0.0000°E)
Time: 10:51:38
(UTC+01:00)
Language:

Ariane H10 - Orbit

View from above orbital plane
View from above orbital plane
View from above satellite
View from above satellite

Ground track
Ground track

The orbit data is extracted from the following two-line orbital elements,

1 19622U 88098B   14301.72618440  .00002966  00000-0  12659-2 0  9161
2 19622 003.9387 091.7344 6451618 042.5158 016.4083 03.35805875271451
Epoch (UTC): 28 October 2014 17:25:42
Eccentricity: 0.6451618
inclination: 3.9387°
perigee height: 306 km
apogee height: 24611 km
right ascension of ascending node: 91.7344°
argument of perigee: 42.5158°
revolutions per day: 3.35805875
mean anomaly at epoch: 16.4083°
orbit number at epoch: 27145

The dashed part of the orbit path shows where the satellite is in the earth's shadow,  

DLR